Kosmos-971

operational
NORAD ID: 10536 Int'l Des: 1977-122 Owner: VMF Country: SU
LEOCIRCULARPOLAR

About Kosmos-971

Description loading...

Live Position

Loading 3D Globe...

Upcoming Passes

Altitude History

Altitude vs Time

uPlot chart will show altitude changes over time

Two-Line Element Set

1 10536U 77122A 26022.36900755 .00000079 00000-0 68612-4 0 9994
2 10536 82.9373 354.1936 0022488 69.4082 94.3836 13.73415439409122
Epoch: Jan 22, 2026 • Age: 20 hours

Current Status

Altitude 984.3 km
Velocity 7.36 km/s
Sub-Earth Point -1.42°S, 155.29°E
Launch Date Dec 23, 1977
Age 48 years
Type other

Technical Details

Classification Payload
Mass 800.00 kg
Dry Mass 800.00 kg
Total Mass 800.00 kg
Length 5.00 m
Diameter 2.10 m
Span 17.00 m
Shape Cyl + Ant
Manufacturer OAZ
Bus Type KAUR-1 11F627
Phase Status In Orbit
Owner/State VMF/SU

Large Constellations

Loading constellations...